Погода в Дмитровой Горе

Россия / Тверская область     56°39′34″N   36°58′31″E
темп.,
°C
ветер,
м/с
пор.,
м/с
влажн.,
%
обл.,
%
осадки,
мм/ч
давл.,
гПа
погр.,
м
18 мая, вт
вт1800:00+16в3109719 0.0 1010224
03:00+15вюв313952 0.0 1009288
06:00+16вюв412880 0.0 1008303
09:00+23юв510542 0.0 1009516
12:00+26юв6123886 0.0 10081087
15:00+28юв512335 0.0 10083094
18:00+26юв410445 0.0 1007626
21:00+20вюв5165815 0.0 1007694
19 мая, ср
ср1900:00+19юв4157020 0.0 1007518
03:00+16вюв413830 0.0 1007409
06:00+17вюв412775 0.0 1007510
09:00+21юв612626 0.0 1007868
12:00+24ююв6175163 0.0 10072241
15:00+25ююв6144814 0.0 10072380
18:00+23ююв410571 0.0 10071493
21:00+17ююв22835 0.1 100729
20 мая, чт
чт2000:00+15юв229682 1.1 100725
03:00+16в31097100 2.2 1005306
06:00+16вюв31094100 0.0 1004394
09:00+20юв5117362 0.0 10041053
12:00+19юв5136488 0.1 10041668
15:00+20ююв712554 0.2 10041804
18:00+18ююв613675 0.3 10041520
21:00+14ююв5117871 0.4 1004963
21 мая, пт
пт2100:00+12ю5108493 0.2 1004881
03:00+11ююз5978100 0.2 1004983
06:00+11ююз5888100 0.1 1005807
09:00+10зюз4992100 0.6 1007682
12:00+10з41093100 1.0 1010850
15:00+17зсз585012 1.1 10111773
18:00+17з3646100 0.0 10121403
21:00+11юз3107288 0.0 1014224
22 мая, сб
сб2200:00+10юз267490 0.0 1015121
03:00+8з2286100 0.0 101626
06:00+10ююз127993 0.0 101766
09:00+16з12540 0.0 1017651
12:00+19зюз23395 0.0 10161919
15:00+20зюз23355 0.0 10162280
18:00+19з23452 0.0 1016769
21:00+12вюв117360 0.0 101611